SCP
0 0 -0 0 0 0 0 -0 -0 0 0 0 0 0 -0 0 -0 0 0 0 0 0 0 0 0 0 -0 -0 -0 0 0 0 -0 -0 -0 -0 -0 -0 -0 -0 -0 -0 -0 -0 -0 -0 -0 0 0
0 0 0 0 0 0 -0 -0 -0 0 0 -0 0 0 0 0 0 0 0 0 -0 0 0 0 0 0 0 0 0 0 0 0 -0 -0 -0 -0 -0 -0 -0 -0 -0 -0 -0 -0 -0 -0 -0 -0 -0
0 0 0 0 0 0 0 -0 -0 0 0 0 0 0 -0 0 0 -0 -0 -0 -0 0 0 0 0 -0 -0 0 0 0 0 -0 -0 -0 -0 -0 -0 -0 -0 -0 -0 -0 -0 -0 -0 -0 -0 -0 -0
0 0 0 0 0 0 0 0 0 -0 -0 0 0 0 -0 -0 -0 -0 -0 -0 -0 -0 0 0 -0 -0 -0 -0 -0 -0 -0 -0 -0 -0 -0 -0 -0 -0 -0 -0 -0 -0 -0 -0 -0 -0 -0 -0 -0
0 0 0 0 0 0 0 0 0 0 0 0 0 0 0 0 -0 -0 -0 -0 -0 0 -0 -0 -0 -0 -0 -0 -0 -0 -0 -0 -0 -0 -0 -0 -0 -0 -0 -0 -0 -0 -0 -0 -0 -0 -0 -0 -0
0 0 0 0 0 0 0 0 0 0 0 0 0 0 0 0 -0 -0 -0 -0 -0 -0 0 -0 -0 -0 -0 -0 -0 -0 -0 -0 -0 -0 -0 -0 -0 -0 -0 -0 -0 -0 -0 -0 -0 -0 -0 -0 -0
0 0 0 0 0 0 0 0 0 0 0 0 0 0 0 0 0 -0 0 -0 -0 -0 -0 -0 -0 -0 -0 -0 -0 -0 -0 -0 -0 -0 -0 -0 -0 -0 -0 -0 -0 -0 -0 -0 -0 -0 -0 -0 0
0 0 0 0 0 0 0 0 0 0 0 0 0 0 0 0 0 0 0 -0 -0 0 0 -0 -0 -0 -0 0 -0 -0 -0 0 -0 -0 -0 -0 -0 -0 -0 -0 -0 -0 -0 -0 -0 -0 0 0 0
0 0 0 0 0 0 0 0 0 0 0 0 0 0 0 0 0 0 0 0 0 0 0 0 0 0 0 0 0 0 0 0 0 0 0 0 0 0 0 0 0 0 0 -0 -0 0 0 0 0
0 0 0 0 0 0 0 0 0 0 0 0 0 0 0 0 0 0 0 0 -0 0 0 0 0 0 0 0 0 0 0 0 0 0 0 0 0 0 0 0 0 0 0 0 0 0 0 0 0
0 0 0 0 0 0 0 0 0 0 0 0 0 0 0 0 0 0 0 0 -0 0 0 0 0 0 0 0 0 0 0 0 0 0 0 0 0 0 0 0 0 0 0 0 0 0 0 0 0
0 0 0 0 0 0 0 0 0 0 0 0 0 0 0 0 0 0 0 0 0 0 0 0 0 0 0 0 0 0 0 0 0 0 0 0 0 0 0 0 0 0 0 0 0 0 0 0 0
0 0 0 0 0 0 0 0 0 0 0 0 0 0 0 0 0 0 0 0 0 0 0 0 0 0 0 0 0 0 0 0 0 0 0 0 0 0 0 0 0 0 0 0 0 0 0 0 0
0 0 0 0 0 0 0 0 0 0 0 0 0 0 0 0 0 0 0 0 0 0 0 0 0 0 0 0 0 0 0 0 0 0 0 0 0 0 0 0 0 0 0 0 0 0 0 0 0
0 0 0 0 0 0 0 0 0 0 0 0 0 0 0 0 0 0 0 0 0 0 0 0 0 0 0 0 0 0 0 0 0 0 0 0 0 0 0 0 0 0 0 0 0 0 0 0 0
0 0 0 0 0 -0 0 0 0 0 0 0 0 0 0 0 0 0 0 0 0 0 0 0 0 0 0 0 0 0 0 0 0 0 0 0 0 0 0 0 0 0 0 0 0 0 0 0 0
0 0 0 0 0 0 0 0 0 0 0 0 0 0 0 0 0 0 0 0 0 0 0 0 0 0 0 0 0 0 0 0 0 0 0 0 0 0 0 0 0 0 0 0 0 0 0 0 0
0 0 0 0 0 0 0 0 0 0 0 0 0 0 0 0 0 0 0 0 0 0 0 0 0 0 0 0 0 0 0 0 0 0 0 0 0 0 0 0 0 0 0 0 0 0 0 0 0
0 0 0 0 0 0 0 0 0 0 0 0 0 0 0 0 0 0 0 0 0 0 0 0 0 0 0 0 0 0 0 0 0 0 0 0 0 0 0 0 0 0 0 0 0 0 0 0 0
0 0 0 0 0 0 0 0 0 0 0 0 0 0 0 0 0 0 0 0 0 0 0 0 0 0 0 0 0 0 0 0 0 0 0 0 0 0 0 0 0 0 0 0 0 0 0 0 0
0 0 0 0 0 0 0 -0 -0 0 0 0 0 0 0 0 0 0 0 0 0 0 0 0 0 0 0 0 0 0 0 0 0 0 0 0 0 0 0 0 0 0 0 0 0 0 0 0 0
0 0 0 0 0 0 0 0 -0 0 0 0 0 0 0 0 0 0 0 0 0 0 0 0 0 0 0 0 0 0 0 0 0 0 0 0 0 0 0 0 0 0 0 0 0 0 0 0 0
0 0 0 0 0 0 0 0 -0 0 0 0 0 0 0 0 0 0 0 0 0 0 0 0 0 0 0 0 0 0 0 0 0 0 0 0 0 0 0 0 0 0 0 0 0 0 0 0 0
0 0 0 0 0 0 0 0 -0 0 0 0 0 0 0 0 0 0 0 0 0 0 0 0 0 0 0 0 0 0 0 0 0 0 0 0 0 0 0 0 0 0 0 0 0 0 0 0 0
0 0 0 0 0 0 0 0 0 0 0 0 0 0 0 0 0 0 0 0 0 0 0 0 0 0 0 0 0 0 0 0 0 0 0 0 0 0 0 0 0 0 0 0 0 0 0 0 0
0 0 0 0 0 0 0 0 0 0 0 0 0 0 0 0 0 0 0 0 0 0 0 0 0 0 0 0 0 0 0 0 0 0 0 0 0 0 0 0 0 0 0 0 0 0 0 0 0
0 0 0 0 0 0 0 0 0 0 0 0 0 0 0 0 0 0 0 0 0 0 0 0 0 0 0 0 0 0 0 0 0 0 0 0 0 0 0 0 0 0 0 0 0 0 0 0 0
0 0 0 0 0 0 0 0 0 0 0 0 0 0 0 0 0 0 0 0 0 0 0 0 0 0 0 0 0 0 0 0 0 0 0 0 0 0 0 0 0 0 0 0 0 0 0 0 0
0 0 0 0 0 0 0 0 0 0 0 0 0 0 0 0 0 0 0 0 0 0 0 0 0 0 0 0 0 0 0 0 0 0 0 0 0 0 0 0 0 0 0 0 0 0 0 0 0
0 0 0 0 0 0 0 0 0 0 0 0 0 0 0 0 0 0 0 0 0 0 0 0 0 0 0 0 0 0 0 0 0 0 0 0 0 0 0 0 0 0 0 0 0 0 0 0 0
Wind_Speed_500mb
28 29 31 12 8 9 3 5 1 9 6 8 20 11 12 6 8 6 23 24 27 25 29 32 27 23 19 21 21 20 16 12 12 11 12 14 19 22 23 25 30 31 32 34 34 36 38 41 34
26 26 17 5 8 6 7 3 10 8 15 33 26 19 7 4 7 11 35 29 25 25 29 32 31 25 21 23 20 19 18 14 9 9 13 19 23 25 24 25 26 31 30 33 32 34 35 36 33
24 19 9 8 6 3 6 7 10 10 36 9 9 4 9 5 14 24 27 31 31 27 30 31 32 29 24 23 19 15 15 15 9 8 13 17 22 22 21 22 25 30 29 31 31 30 31 32 31
15 6 10 8 2 6 5 4 11 20 13 9 12 8 5 10 9 36 34 32 32 31 30 32 32 30 28 26 20 14 11 13 16 9 10 15 20 19 19 21 23 26 26 26 27 28 28 31 31
11 5 7 5 6 8 7 7 26 8 8 12 16 8 4 13 25 32 35 32 33 32 32 32 33 33 29 24 18 13 12 18 20 15 9 13 17 16 17 18 20 22 22 21 21 23 28 30 31
2 5 7 3 7 9 8 15 13 3 5 14 7 18 9 25 26 31 32 30 31 29 32 31 33 33 29 24 20 17 14 16 20 17 14 12 13 14 13 16 18 19 21 20 20 21 25 27 28
10 7 8 6 5 8 4 20 7 11 6 10 11 11 8 33 29 31 30 31 32 31 30 31 31 31 28 25 21 20 17 13 18 19 17 13 14 13 13 14 16 17 17 17 17 19 21 22 21
8 10 10 7 6 8 4 12 10 23 14 8 20 8 8 40 40 38 35 33 35 36 32 32 31 31 29 26 23 21 19 19 18 18 19 16 16 15 14 14 15 16 16 16 13 16 18 18 19
8 7 9 12 11 8 4 4 7 10 10 18 21 13 10 35 44 46 48 44 42 43 39 36 33 32 29 27 25 23 23 22 20 21 22 18 16 16 17 16 16 16 17 15 12 10 12 13 13
7 7 19 18 15 6 2 6 6 9 12 18 25 30 20 27 51 56 59 57 54 51 48 42 38 35 33 31 28 27 26 26 24 22 22 20 20 19 17 17 18 18 17 16 13 9 7 6 6
7 11 4 11 15 7 2 6 6 9 5 26 33 41 29 36 54 57 60 61 57 53 53 49 44 40 37 36 33 30 29 28 27 25 23 22 22 20 17 16 16 16 15 14 13 10 6 4 4
6 17 9 7 7 7 8 2 8 21 30 18 21 38 40 45 54 58 60 64 63 57 52 52 49 46 43 40 36 33 32 30 28 27 26 24 23 23 21 19 17 16 16 15 13 12 11 9 7
7 9 9 6 14 16 17 21 18 22 31 37 21 31 46 51 51 55 56 59 63 62 56 56 54 51 48 46 41 39 36 33 29 28 27 26 25 23 23 22 19 19 17 15 13 12 13 11 9
5 9 30 21 22 21 11 21 5 25 26 29 34 33 42 54 57 60 63 64 66 65 62 59 60 56 53 51 47 45 41 36 34 31 29 27 27 26 24 25 23 22 20 18 17 15 14 14 13
2 7 14 10 11 12 11 15 18 61 52 50 39 41 45 54 64 68 57 65 65 65 65 64 63 60 60 56 53 50 46 43 41 37 35 33 31 30 28 28 26 23 22 21 20 20 19 18 16
7 3 10 2 15 12 20 26 9 45 58 61 59 54 54 58 63 65 68 67 66 66 70 70 67 67 65 62 59 57 54 50 47 43 42 39 36 34 33 32 29 27 26 24 24 24 24 22 21
7 7 12 11 23 9 17 2 8 30 36 46 54 59 64 65 67 72 73 70 68 66 71 73 74 74 69 67 65 62 59 59 55 51 49 45 42 41 39 37 32 32 30 29 28 28 27 26 24
15 9 3 7 9 6 13 18 13 32 37 44 54 68 71 75 75 72 74 72 72 74 73 76 77 78 74 71 70 69 69 65 64 61 56 51 49 48 45 43 40 38 37 35 35 33 31 28 26
6 1 5 9 8 9 16 29 18 45 57 51 69 77 73 74 77 76 73 78 85 82 82 82 84 86 82 81 81 80 81 73 70 68 63 58 57 54 51 49 46 45 45 39 37 36 35 34 30
26 27 18 6 9 5 15 46 36 29 37 58 68 66 82 86 76 77 77 87 91 92 89 86 91 91 89 89 86 86 81 80 76 70 69 67 63 59 57 54 52 51 50 47 45 45 41 37 34
38 42 34 27 11 12 14 48 35 18 58 72 83 70 76 87 93 91 88 87 89 93 95 97 94 95 97 95 91 90 86 87 86 84 78 76 70 65 61 58 56 55 55 53 51 49 47 43 39
32 14 17 30 12 12 7 23 41 19 25 42 70 62 77 89 100 102 101 95 89 93 98 96 97 101 102 99 101 100 98 100 95 89 84 81 73 72 68 64 61 57 57 57 55 53 53 50 46
14 8 14 13 23 23 40 17 7 5 22 32 43 67 74 87 93 103 119 114 106 103 99 103 102 104 106 106 104 107 105 102 95 91 88 85 81 77 75 70 66 63 61 60 56 54 57 57 53
7 4 4 2 10 19 37 24 47 22 43 22 38 76 70 79 92 98 104 114 114 97 100 99 106 107 109 108 106 107 110 103 102 97 91 86 81 80 80 76 71 69 66 63 60 54 54 58 60
14 11 5 8 11 23 11 23 50 19 21 25 29 57 70 75 80 97 96 103 106 107 105 108 104 108 110 111 108 102 108 107 104 98 91 89 83 80 78 76 76 74 70 67 64 63 60 57 63
32 34 8 15 11 10 7 22 32 27 52 76 85 85 87 81 88 95 97 101 103 99 98 106 117 112 109 110 106 102 98 107 98 96 91 90 86 79 73 69 69 70 69 69 68 70 68 64 66
11 25 48 14 6 10 11 18 24 44 46 34 52 67 82 93 101 113 112 105 107 105 98 100 113 115 113 108 101 101 101 101 93 90 88 87 84 81 75 65 63 62 60 62 67 72 72 68 67
34 9 9 15 14 22 14 15 24 34 38 16 25 50 80 102 93 109 120 108 100 106 98 91 105 110 107 103 98 100 99 94 91 89 88 85 83 81 73 64 61 59 59 59 55 56 57 66 68
18 31 15 8 19 18 24 19 31 51 51 39 44 73 79 94 93 98 119 101 94 97 90 96 95 107 106 99 96 101 97 92 89 91 90 85 81 77 72 62 56 55 56 53 54 58 58 64 65
28 38 44 25 23 16 30 43 53 37 16 22 47 70 79 82 74 83 92 92 89 81 87 91 91 101 105 97 94 98 90 88 87 88 87 82 79 74 66 58 55 55 51 56 60 63 60 65 64
Wind_Direction_500mb
326 328 331 344 44 63 151 204 242 143 181 177 138 162 181 132 166 204 154 161 158 156 165 157 157 157 152 141 134 129 128 121 113 102 91 88 91 95 94 96 98 98 93 87 88 88 86 89 82
330 333 337 30 77 52 277 226 195 186 134 121 113 117 135 187 172 157 159 162 162 162 168 167 163 160 165 150 147 141 141 135 113 95 97 95 102 92 92 95 100 102 94 89 92 89 87 91 86
332 334 357 82 103 167 233 225 176 131 147 133 124 150 158 183 184 170 171 164 159 167 169 173 167 165 167 156 154 151 141 138 115 86 88 96 94 93 94 102 103 105 103 98 98 93 89 89 86
335 348 62 74 310 264 235 263 159 137 209 208 158 104 163 178 206 169 167 166 158 167 169 174 170 167 172 170 172 164 161 153 134 127 105 94 108 102 104 109 111 113 107 105 97 90 92 86 83
333 48 57 60 278 273 287 215 163 166 173 175 164 186 205 190 164 170 170 168 164 168 171 175 177 175 180 183 189 194 193 167 158 168 152 122 121 111 108 107 113 118 117 113 106 97 91 85 89
55 78 67 202 256 277 289 171 153 212 179 168 172 148 170 169 170 173 175 171 171 176 177 179 186 191 196 200 206 207 215 179 161 168 161 141 130 119 116 117 119 123 127 125 108 102 92 92 91
131 90 184 202 232 305 229 170 202 188 190 228 178 139 209 179 171 180 181 181 181 184 187 185 190 196 203 204 207 213 217 191 178 172 162 143 133 128 126 126 128 128 131 128 122 112 99 97 93
173 103 154 230 225 249 238 183 226 200 212 233 185 210 233 188 179 183 186 191 192 192 196 197 196 199 200 204 205 207 206 203 189 177 165 159 153 145 139 137 138 136 140 143 135 116 108 105 99
183 89 198 198 171 234 216 209 203 195 189 181 205 224 247 191 184 187 191 194 199 201 200 203 204 203 202 205 203 202 198 197 188 181 173 169 170 160 154 150 144 146 151 155 151 131 118 107 104
174 178 214 195 188 202 330 233 206 176 167 214 228 227 224 200 194 195 200 200 201 204 203 204 208 207 205 205 203 202 199 195 190 184 180 178 178 175 169 160 158 157 156 162 164 162 142 122 114
179 217 196 231 190 153 234 316 229 174 198 226 231 228 218 200 202 207 210 212 210 205 206 207 208 209 209 208 206 205 202 198 195 191 188 189 186 183 179 174 170 167 168 170 172 183 194 197 173
225 263 232 336 336 279 176 162 246 232 255 251 271 249 226 206 211 215 220 218 215 214 214 211 211 212 211 210 212 211 209 204 201 199 200 199 195 194 190 189 185 183 184 188 197 201 213 223 216
194 272 278 212 286 307 303 252 232 259 272 263 263 236 233 226 229 228 226 225 223 220 219 218 217 216 215 214 214 215 214 212 208 209 209 207 204 204 204 204 202 201 201 204 208 212 218 226 233
175 253 274 285 273 263 280 273 236 258 268 274 259 250 239 235 236 229 227 228 227 226 224 222 223 220 220 220 219 219 218 217 214 213 212 210 208 209 213 216 214 215 215 218 220 223 229 235 241
90 297 314 229 232 230 241 271 192 253 257 257 260 247 242 241 232 234 245 240 234 231 230 227 226 226 225 224 224 223 222 221 221 218 215 214 217 218 219 219 221 223 227 230 234 237 240 245 250
155 150 259 52 150 231 176 254 243 246 244 248 248 248 244 240 244 244 241 239 242 237 235 233 231 230 229 228 228 227 226 225 226 224 222 220 222 222 225 225 223 226 231 234 237 240 244 249 253
210 246 213 295 203 184 188 153 294 242 246 246 249 245 247 248 241 244 244 244 243 244 240 236 235 235 233 231 232 232 231 230 229 227 228 225 225 227 229 231 229 230 235 238 242 245 249 251 254
215 226 297 227 334 277 251 238 277 253 267 259 257 255 248 245 245 248 245 247 247 244 243 241 237 238 236 235 234 233 233 232 232 230 230 229 230 231 233 234 233 234 237 240 242 246 250 252 250
99 86 226 348 312 292 266 279 246 251 262 260 257 253 253 249 247 252 251 248 246 244 242 241 240 236 235 234 233 233 233 233 233 233 231 232 233 233 235 237 237 238 242 245 248 250 250 249 245
246 253 264 274 266 287 308 281 274 228 250 256 255 246 248 255 252 252 254 251 247 247 246 243 242 239 236 238 237 237 237 237 237 238 236 232 234 235 236 239 241 243 245 245 245 246 248 247 241
238 242 250 260 322 281 319 288 269 236 234 252 256 251 251 251 253 252 251 253 253 247 247 245 245 244 240 236 238 238 240 241 239 237 237 236 236 237 238 241 243 245 248 249 250 249 249 249 244
240 213 248 252 275 263 164 281 277 275 250 232 252 252 241 245 253 253 251 248 248 250 249 247 246 246 243 240 236 238 238 240 240 240 240 240 239 241 241 242 245 247 248 251 252 250 248 246 241
240 237 198 193 227 271 254 273 294 24 265 247 240 249 242 249 253 255 253 247 244 247 251 249 246 244 244 242 239 241 240 243 246 247 246 244 243 244 244 243 245 248 247 249 250 247 246 245 245
72 239 306 167 225 235 239 205 279 240 253 252 244 250 250 252 257 254 255 252 245 245 246 248 244 242 242 243 241 241 243 242 243 244 247 248 247 245 244 244 245 246 247 248 248 248 247 246 246
184 167 251 230 210 242 167 190 243 262 252 269 259 257 260 255 257 265 259 246 243 239 240 242 241 240 240 240 241 241 243 244 246 247 248 248 249 246 243 243 244 245 246 248 248 248 249 248 249
203 205 190 202 201 248 150 214 238 264 256 255 257 259 267 263 255 257 262 256 247 241 239 239 238 238 238 238 239 240 240 242 244 246 247 248 247 249 248 246 248 249 251 251 252 251 251 251 252
179 208 222 289 275 289 243 277 293 276 268 263 258 259 261 262 256 254 253 258 253 244 238 239 238 238 238 235 237 237 236 239 242 242 244 246 246 247 248 247 247 250 252 253 255 255 254 254 255
209 130 192 207 241 247 242 243 249 274 272 282 268 260 261 264 258 260 258 255 254 247 244 240 237 235 235 234 235 236 235 238 240 242 243 243 244 245 247 248 246 249 251 253 254 256 256 257 258
197 235 242 239 231 246 256 253 242 255 264 270 265 265 264 267 264 261 261 261 253 247 241 236 233 231 229 230 234 233 233 236 237 240 242 244 245 246 247 247 246 247 250 251 253 257 258 261 261
215 216 214 221 226 240 255 257 268 262 275 300 294 285 281 276 281 275 267 266 249 245 238 234 231 227 227 231 235 232 233 236 236 239 241 245 246 247 246 245 244 245 246 252 252 258 259 259 260
Wind_Speed_850mb
28 29 31 12 8 9 3 5 1 9 6 8 20 11 12 6 8 6 23 24 27 25 29 32 27 23 19 21 21 20 16 12 12 11 12 14 19 22 23 25 30 31 32 34 34 36 38 41 34
26 26 17 5 8 6 7 3 10 8 15 33 26 19 7 4 7 11 35 29 25 25 29 32 31 25 21 23 20 19 18 14 9 9 13 19 23 25 24 25 26 31 30 33 32 34 35 36 33
24 19 9 8 6 3 6 7 10 10 36 9 9 4 9 5 14 24 27 31 31 27 30 31 32 29 24 23 19 15 15 15 9 8 13 17 22 22 21 22 25 30 29 31 31 30 31 32 31
15 6 10 8 2 6 5 4 11 20 13 9 12 8 5 10 9 36 34 32 32 31 30 32 32 30 28 26 20 14 11 13 16 9 10 15 20 19 19 21 23 26 26 26 27 28 28 31 31
11 5 7 5 6 8 7 7 26 8 8 12 16 8 4 13 25 32 35 32 33 32 32 32 33 33 29 24 18 13 12 18 20 15 9 13 17 16 17 18 20 22 22 21 21 23 28 30 31
2 5 7 3 7 9 8 15 13 3 5 14 7 18 9 25 26 31 32 30 31 29 32 31 33 33 29 24 20 17 14 16 20 17 14 12 13 14 13 16 18 19 21 20 20 21 25 27 28
10 7 8 6 5 8 4 20 7 11 6 10 11 11 8 33 29 31 30 31 32 31 30 31 31 31 28 25 21 20 17 13 18 19 17 13 14 13 13 14 16 17 17 17 17 19 21 22 21
8 10 10 7 6 8 4 12 10 23 14 8 20 8 8 40 40 38 35 33 35 36 32 32 31 31 29 26 23 21 19 19 18 18 19 16 16 15 14 14 15 16 16 16 13 16 18 18 19
8 7 9 12 11 8 4 4 7 10 10 18 21 13 10 35 44 46 48 44 42 43 39 36 33 32 29 27 25 23 23 22 20 21 22 18 16 16 17 16 16 16 17 15 12 10 12 13 13
7 7 19 18 15 6 2 6 6 9 12 18 25 30 20 27 51 56 59 57 54 51 48 42 38 35 33 31 28 27 26 26 24 22 22 20 20 19 17 17 18 18 17 16 13 9 7 6 6
7 11 4 11 15 7 2 6 6 9 5 26 33 41 29 36 54 57 60 61 57 53 53 49 44 40 37 36 33 30 29 28 27 25 23 22 22 20 17 16 16 16 15 14 13 10 6 4 4
6 17 9 7 7 7 8 2 8 21 30 18 21 38 40 45 54 58 60 64 63 57 52 52 49 46 43 40 36 33 32 30 28 27 26 24 23 23 21 19 17 16 16 15 13 12 11 9 7
7 9 9 6 14 16 17 21 18 22 31 37 21 31 46 51 51 55 56 59 63 62 56 56 54 51 48 46 41 39 36 33 29 28 27 26 25 23 23 22 19 19 17 15 13 12 13 11 9
5 9 30 21 22 21 11 21 5 25 26 29 34 33 42 54 57 60 63 64 66 65 62 59 60 56 53 51 47 45 41 36 34 31 29 27 27 26 24 25 23 22 20 18 17 15 14 14 13
2 7 14 10 11 12 11 15 18 61 52 50 39 41 45 54 64 68 57 65 65 65 65 64 63 60 60 56 53 50 46 43 41 37 35 33 31 30 28 28 26 23 22 21 20 20 19 18 16
7 3 10 2 15 12 20 26 9 45 58 61 59 54 54 58 63 65 68 67 66 66 70 70 67 67 65 62 59 57 54 50 47 43 42 39 36 34 33 32 29 27 26 24 24 24 24 22 21
7 7 12 11 23 9 17 2 8 30 36 46 54 59 64 65 67 72 73 70 68 66 71 73 74 74 69 67 65 62 59 59 55 51 49 45 42 41 39 37 32 32 30 29 28 28 27 26 24
15 9 3 7 9 6 13 18 13 32 37 44 54 68 71 75 75 72 74 72 72 74 73 76 77 78 74 71 70 69 69 65 64 61 56 51 49 48 45 43 40 38 37 35 35 33 31 28 26
6 1 5 9 8 9 16 29 18 45 57 51 69 77 73 74 77 76 73 78 85 82 82 82 84 86 82 81 81 80 81 73 70 68 63 58 57 54 51 49 46 45 45 39 37 36 35 34 30
26 27 18 6 9 5 15 46 36 29 37 58 68 66 82 86 76 77 77 87 91 92 89 86 91 91 89 89 86 86 81 80 76 70 69 67 63 59 57 54 52 51 50 47 45 45 41 37 34
38 42 34 27 11 12 14 48 35 18 58 72 83 70 76 87 93 91 88 87 89 93 95 97 94 95 97 95 91 90 86 87 86 84 78 76 70 65 61 58 56 55 55 53 51 49 47 43 39
32 14 17 30 12 12 7 23 41 19 25 42 70 62 77 89 100 102 101 95 89 93 98 96 97 101 102 99 101 100 98 100 95 89 84 81 73 72 68 64 61 57 57 57 55 53 53 50 46
14 8 14 13 23 23 40 17 7 5 22 32 43 67 74 87 93 103 119 114 106 103 99 103 102 104 106 106 104 107 105 102 95 91 88 85 81 77 75 70 66 63 61 60 56 54 57 57 53
7 4 4 2 10 19 37 24 47 22 43 22 38 76 70 79 92 98 104 114 114 97 100 99 106 107 109 108 106 107 110 103 102 97 91 86 81 80 80 76 71 69 66 63 60 54 54 58 60
14 11 5 8 11 23 11 23 50 19 21 25 29 57 70 75 80 97 96 103 106 107 105 108 104 108 110 111 108 102 108 107 104 98 91 89 83 80 78 76 76 74 70 67 64 63 60 57 63
32 34 8 15 11 10 7 22 32 27 52 76 85 85 87 81 88 95 97 101 103 99 98 106 117 112 109 110 106 102 98 107 98 96 91 90 86 79 73 69 69 70 69 69 68 70 68 64 66
11 25 48 14 6 10 11 18 24 44 46 34 52 67 82 93 101 113 112 105 107 105 98 100 113 115 113 108 101 101 101 101 93 90 88 87 84 81 75 65 63 62 60 62 67 72 72 68 67
34 9 9 15 14 22 14 15 24 34 38 16 25 50 80 102 93 109 120 108 100 106 98 91 105 110 107 103 98 100 99 94 91 89 88 85 83 81 73 64 61 59 59 59 55 56 57 66 68
18 31 15 8 19 18 24 19 31 51 51 39 44 73 79 94 93 98 119 101 94 97 90 96 95 107 106 99 96 101 97 92 89 91 90 85 81 77 72 62 56 55 56 53 54 58 58 64 65
28 38 44 25 23 16 30 43 53 37 16 22 47 70 79 82 74 83 92 92 89 81 87 91 91 101 105 97 94 98 90 88 87 88 87 82 79 74 66 58 55 55 51 56 60 63 60 65 64
Wind_Direction_850mb
326 328 331 344 44 63 151 204 242 143 181 177 138 162 181 132 166 204 154 161 158 156 165 157 157 157 152 141 134 129 128 121 113 102 91 88 91 95 94 96 98 98 93 87 88 88 86 89 82
330 333 337 30 77 52 277 226 195 186 134 121 113 117 135 187 172 157 159 162 162 162 168 167 163 160 165 150 147 141 141 135 113 95 97 95 102 92 92 95 100 102 94 89 92 89 87 91 86
332 334 357 82 103 167 233 225 176 131 147 133 124 150 158 183 184 170 171 164 159 167 169 173 167 165 167 156 154 151 141 138 115 86 88 96 94 93 94 102 103 105 103 98 98 93 89 89 86
335 348 62 74 310 264 235 263 159 137 209 208 158 104 163 178 206 169 167 166 158 167 169 174 170 167 172 170 172 164 161 153 134 127 105 94 108 102 104 109 111 113 107 105 97 90 92 86 83
333 48 57 60 278 273 287 215 163 166 173 175 164 186 205 190 164 170 170 168 164 168 171 175 177 175 180 183 189 194 193 167 158 168 152 122 121 111 108 107 113 118 117 113 106 97 91 85 89
55 78 67 202 256 277 289 171 153 212 179 168 172 148 170 169 170 173 175 171 171 176 177 179 186 191 196 200 206 207 215 179 161 168 161 141 130 119 116 117 119 123 127 125 108 102 92 92 91
131 90 184 202 232 305 229 170 202 188 190 228 178 139 209 179 171 180 181 181 181 184 187 185 190 196 203 204 207 213 217 191 178 172 162 143 133 128 126 126 128 128 131 128 122 112 99 97 93
173 103 154 230 225 249 238 183 226 200 212 233 185 210 233 188 179 183 186 191 192 192 196 197 196 199 200 204 205 207 206 203 189 177 165 159 153 145 139 137 138 136 140 143 135 116 108 105 99
183 89 198 198 171 234 216 209 203 195 189 181 205 224 247 191 184 187 191 194 199 201 200 203 204 203 202 205 203 202 198 197 188 181 173 169 170 160 154 150 144 146 151 155 151 131 118 107 104
174 178 214 195 188 202 330 233 206 176 167 214 228 227 224 200 194 195 200 200 201 204 203 204 208 207 205 205 203 202 199 195 190 184 180 178 178 175 169 160 158 157 156 162 164 162 142 122 114
179 217 196 231 190 153 234 316 229 174 198 226 231 228 218 200 202 207 210 212 210 205 206 207 208 209 209 208 206 205 202 198 195 191 188 189 186 183 179 174 170 167 168 170 172 183 194 197 173
225 263 232 336 336 279 176 162 246 232 255 251 271 249 226 206 211 215 220 218 215 214 214 211 211 212 211 210 212 211 209 204 201 199 200 199 195 194 190 189 185 183 184 188 197 201 213 223 216
194 272 278 212 286 307 303 252 232 259 272 263 263 236 233 226 229 228 226 225 223 220 219 218 217 216 215 214 214 215 214 212 208 209 209 207 204 204 204 204 202 201 201 204 208 212 218 226 233
175 253 274 285 273 263 280 273 236 258 268 274 259 250 239 235 236 229 227 228 227 226 224 222 223 220 220 220 219 219 218 217 214 213 212 210 208 209 213 216 214 215 215 218 220 223 229 235 241
90 297 314 229 232 230 241 271 192 253 257 257 260 247 242 241 232 234 245 240 234 231 230 227 226 226 225 224 224 223 222 221 221 218 215 214 217 218 219 219 221 223 227 230 234 237 240 245 250
155 150 259 52 150 231 176 254 243 246 244 248 248 248 244 240 244 244 241 239 242 237 235 233 231 230 229 228 228 227 226 225 226 224 222 220 222 222 225 225 223 226 231 234 237 240 244 249 253
210 246 213 295 203 184 188 153 294 242 246 246 249 245 247 248 241 244 244 244 243 244 240 236 235 235 233 231 232 232 231 230 229 227 228 225 225 227 229 231 229 230 235 238 242 245 249 251 254
215 226 297 227 334 277 251 238 277 253 267 259 257 255 248 245 245 248 245 247 247 244 243 241 237 238 236 235 234 233 233 232 232 230 230 229 230 231 233 234 233 234 237 240 242 246 250 252 250
99 86 226 348 312 292 266 279 246 251 262 260 257 253 253 249 247 252 251 248 246 244 242 241 240 236 235 234 233 233 233 233 233 233 231 232 233 233 235 237 237 238 242 245 248 250 250 249 245
246 253 264 274 266 287 308 281 274 228 250 256 255 246 248 255 252 252 254 251 247 247 246 243 242 239 236 238 237 237 237 237 237 238 236 232 234 235 236 239 241 243 245 245 245 246 248 247 241
238 242 250 260 322 281 319 288 269 236 234 252 256 251 251 251 253 252 251 253 253 247 247 245 245 244 240 236 238 238 240 241 239 237 237 236 236 237 238 241 243 245 248 249 250 249 249 249 244
240 213 248 252 275 263 164 281 277 275 250 232 252 252 241 245 253 253 251 248 248 250 249 247 246 246 243 240 236 238 238 240 240 240 240 240 239 241 241 242 245 247 248 251 252 250 248 246 241
240 237 198 193 227 271 254 273 294 24 265 247 240 249 242 249 253 255 253 247 244 247 251 249 246 244 244 242 239 241 240 243 246 247 246 244 243 244 244 243 245 248 247 249 250 247 246 245 245
72 239 306 167 225 235 239 205 279 240 253 252 244 250 250 252 257 254 255 252 245 245 246 248 244 242 242 243 241 241 243 242 243 244 247 248 247 245 244 244 245 246 247 248 248 248 247 246 246
184 167 251 230 210 242 167 190 243 262 252 269 259 257 260 255 257 265 259 246 243 239 240 242 241 240 240 240 241 241 243 244 246 247 248 248 249 246 243 243 244 245 246 248 248 248 249 248 249
203 205 190 202 201 248 150 214 238 264 256 255 257 259 267 263 255 257 262 256 247 241 239 239 238 238 238 238 239 240 240 242 244 246 247 248 247 249 248 246 248 249 251 251 252 251 251 251 252
179 208 222 289 275 289 243 277 293 276 268 263 258 259 261 262 256 254 253 258 253 244 238 239 238 238 238 235 237 237 236 239 242 242 244 246 246 247 248 247 247 250 252 253 255 255 254 254 255
209 130 192 207 241 247 242 243 249 274 272 282 268 260 261 264 258 260 258 255 254 247 244 240 237 235 235 234 235 236 235 238 240 242 243 243 244 245 247 248 246 249 251 253 254 256 256 257 258
197 235 242 239 231 246 256 253 242 255 264 270 265 265 264 267 264 261 261 261 253 247 241 236 233 231 229 230 234 233 233 236 237 240 242 244 245 246 247 247 246 247 250 251 253 257 258 261 261
215 216 214 221 226 240 255 257 268 262 275 300 294 285 281 276 281 275 267 266 249 245 238 234 231 227 227 231 235 232 233 236 236 239 241 245 246 247 246 245 244 245 246 252 252 258 259 259 260